Long Point, Ontario

5:12 AM EDT on July 21, 2017 (GMT -0400)
Long Point

Weather History for CWPS - November, 2013

Change the Weather History Date:

Monday, November 25, 2013

  Actual Average (KERI) Record (KERI)
Temperature  
Mean Temperature 29 °F 40 °F  
Max Temperature 35 °F 46 °F 69 °F (1908)
Min Temperature 23 °F 34 °F 7 °F (1881)
Degree Days  
Heating Degree Days 36 25  
Month to date heating degree days 520  
Since 1 July heating degree days 1023  
Cooling Degree Days 0 0  
Month to date cooling degree days 0  
Year to date cooling degree days 638  
Moisture  
Dew Point 19 °F    
Average Humidity 65    
Maximum Humidity 86    
Minimum Humidity 33    
Precipitation  
Precipitation 0.00 in 0.13 in 1.65 in (1950)
Month to date precipitation 3.28  
Year to date precipitation 37.77  
Snow  
Snow - 0.40 in - ()
Month to date snowfall 6.2  
Since 1 July snowfall 6.4  
Since 1 September snowfall 6.4  
Snow Depth -    
Sea Level Pressure  
Sea Level Pressure 30.23 in    
Wind  
Wind Speed 23 mph ()    
Max Wind Speed 40 mph    
Max Gust Speed 50 mph    
T = Trace of Precipitation, MM = Missing Value Source: Averaged Metar Reports

Daily Weather History Graph

Daily Weather History Graph

Search for Another Location

Airport or City:

Trip Planner

Search our weather history database for the weather conditions in past years. The results will help you decide how hot, cold, wet, or windy it might be!

Date:

Astronomy

Nov. 25, 2013 Rise Set
Actual Time 7:23 AM EST 4:50 PM EST
Civil Twilight 6:52 AM EST 5:21 PM EST
Nautical Twilight 6:18 AM EST 5:56 PM EST
Astronomical Twilight 5:44 AM EST 6:29 PM EST
Moon No Moon Rise 12:35 PM EST (11/25)
Length of Visible Light 10h 28m
Length of Day
9h 26m
Waning Gibbous, 51% of the Moon is Illuminated
Nov 25
Waning Gibbous
Nov 25
Last Quarter
Dec 2
New
Dec 9
First Quarter
Dec 17
Full

Hourly Weather History & Observations

Time (EST) Temp. Windchill Dew Point Humidity Pressure Visibility Wind Dir Wind Speed Gust Speed Precip Events Conditions
12:00 AM 23.4 °F 10.6 °F 11.7 °F 61% 30.40 in - WSW 15.0 mph - N/A   Unknown
1:00 AM 24 °F - 15 °F 57% 30.39 in - WSW 12.7 mph - -  
1:00 AM 24.3 °F 12.7 °F 15.1 °F 68% 30.39 in - WSW 12.7 mph - N/A   Unknown
2:00 AM 24.6 °F 13.8 °F 15.8 °F 69% 30.38 in - WSW 11.5 mph - N/A   Unknown
3:00 AM 25.5 °F 13.8 °F 17.4 °F 71% 30.39 in - WSW 13.8 mph - N/A   Unknown
4:00 AM 25.9 °F 16.0 °F 18.5 °F 74% 30.37 in - WSW 10.4 mph - N/A   Unknown
5:00 AM 28.8 °F 17.5 °F 21.4 °F 74% 30.35 in - SW 15.0 mph 29.9 mph N/A   Unknown
6:00 AM 28.9 °F 12.5 °F 24.3 °F 83% 30.32 in - South 34.5 mph 43.7 mph N/A   Unknown
7:00 AM 28 °F - 23 °F 72% 30.31 in - South 35.7 mph - -  
7:00 AM 28.0 °F 11.1 °F 22.6 °F 80% 30.31 in - South 35.7 mph 42.6 mph N/A   Unknown
8:00 AM 29.1 °F 12.6 °F 25.3 °F 86% 30.30 in - South 35.7 mph 41.4 mph N/A   Unknown
9:00 AM 26.6 °F 9.3 °F 20.7 °F 78% 30.29 in - South 34.5 mph - N/A   Unknown
10:00 AM 26.6 °F 9.6 °F 19.8 °F 75% 30.28 in - South 33.4 mph - N/A   Unknown
11:00 AM 27.7 °F 10.8 °F 21.6 °F 78% 30.25 in - SSE 34.5 mph 41.4 mph N/A   Unknown
12:00 PM 28.9 °F 13.0 °F 17.8 °F 63% 30.21 in - South 32.2 mph - N/A   Unknown
1:00 PM 30 °F - 17 °F 46% 30.18 in - South 29.9 mph - -  
1:00 PM 29.8 °F 14.7 °F 17.1 °F 59% 30.18 in - South 29.9 mph - N/A   Unknown
2:00 PM 31.6 °F 16.5 °F 18.5 °F 58% 30.14 in - South 33.4 mph 40.3 mph N/A   Unknown
3:00 PM 33.3 °F 19.1 °F 17.8 °F 53% 30.11 in - South 31.1 mph 38.0 mph N/A   Unknown
4:00 PM 34.9 °F 21.1 °F 16.9 °F 48% 30.13 in - South 32.2 mph 40.3 mph N/A   Unknown
5:00 PM 35.1 °F 20.4 °F 16.0 °F 46% 30.11 in - South 38.0 mph 48.3 mph N/A   Unknown
6:00 PM 35.2 °F 20.8 °F 15.6 °F 45% 30.09 in - South 36.8 mph 44.9 mph N/A   Unknown
7:00 PM 35 °F - 16 °F 33% 30.07 in - South 40.3 mph - -  
7:00 PM 35.1 °F 20.0 °F 16.3 °F 47% 30.07 in - South 40.3 mph 47.2 mph N/A   Unknown
8:00 PM 35.4 °F 20.7 °F 19.0 °F 51% 30.10 in - South 39.1 mph 44.9 mph N/A   Unknown
9:00 PM 33.1 °F 17.3 °F 27.5 °F 80% 30.07 in - South 40.3 mph 49.5 mph N/A   Unknown
10:00 PM 33.1 °F 17.6 °F 28.4 °F 83% 30.08 in - South 38.0 mph - N/A   Unknown
11:00 PM 33.3 °F 17.9 °F 26.8 °F 77% 30.09 in - South 38.0 mph 44.9 mph N/A   Unknown